カタログに戻る

DELTA 1 DEB

運用中LEO
NORAD 10842·DEBRIS·🇺🇸 United States

打ち上げ Jul 29, 1976 から Vandenberg Space Force Base

Loading…

次のパス (今後24時間)

TLE

最新Source: Space-Track

元期: Sep 14, 2026, 09:27 UTC

1 10842U 76077CN  26257.39384417  .00000041  00000-0  45463-3 0  9993
2 10842 102.2185  60.6976 0287575 238.5683 146.9846 12.58990019165890

AllMySatでDELTA 1 DEBをリアルタイム追跡

Download on the App Store